Regional Weather Roundup
Issued by NWS

Current Version | Previous Version | Text Only | Print | Product List | Glossary On
Versions: 1 2 3 4 5 6 7 8 9 10 11 12 13 14 15 16 17 18 19 20 21 22 23 24 25 26 27 28 29 30 31 32 33 34 35 36 37 38 39 40 41 42 43 44 45 46 47 48 49 50
000
ASUS44 KOUN 242210
RWROK

WEATHER ROUNDUP FOR OKLAHOMA
NATIONAL WEATHER SERVICE NORMAN OK
500 PM CDT SUN JUN 24 2018

NOTE: "FAIR" INDICATES FEW OR NO CLOUDS BELOW 12,000 FEET WITH NO
      SIGNIFICANT WEATHER AND/OR OBSTRUCTIONS TO VISIBILITY.

OKZ001>007-009>012-014-015-017-242300-
NORTHWEST OKLAHOMA AND THE PANHANDLE

CITY           SKY/WX    TMP DP  RH WIND       PRES   REMARKS
GAGE           MOSUNNY   80  64  58 MISG      29.84F
GUYMON         SUNNY     80  60  50 SE9G20    29.86F
ENID/WOODRING  PTSUNNY   70  70 100 NW7       29.77R
$$

OKZ016-021>023-033>039-044-045-242300-
SOUTHWEST OKLAHOMA

CITY           SKY/WX    TMP DP  RH WIND       PRES   REMARKS
LAWTON/REGL    CLOUDY    81  66  60 E24G35    29.80F
LAWTON/FT SILL CLOUDY    79  70  74 E25G31    29.79F
FREDERICK      SUNNY     90  66  45 E29G37    29.74F HX  92
CLINTON        CLOUDY    76  67  73 SE14      29.84F
HOBART         SUNNY     78  67  68 E16       29.82F
$$

OKZ018>020-024>031-242300-
CENTRAL OKLAHOMA

CITY           SKY/WX    TMP DP  RH WIND       PRES   REMARKS
OKLAHOMA CITY  CLOUDY    67  63  87 S10       29.83R THUNDER
OKC/WILEY POST CLOUDY    69  64  84 S7        29.82R
OKC/TINKER AFB CLOUDY    67  63  87 S8        29.82R
STILLWATER     CLOUDY    71  62  73 N13       29.74R
GUTHRIE        PTSUNNY   70  62  76 S15G25    29.78R
$$

OKZ008-013-054>072-242300-
NORTHEAST OKLAHOMA

CITY           SKY/WX    TMP DP  RH WIND       PRES   REMARKS
TULSA          CLOUDY    79  60  52 SW17G30   29.73F
TULSA/JONES    LGT RAIN  72  63  73 SW7       29.81F
PONCA CITY     CLOUDY    69  64  84 NE16      29.81R
BARTLESVILLE   CLOUDY    71  68  90 E10       29.81R
MUSKOGEE       LGT RAIN  70  70 100 S12       29.92F
$$

OKZ032-040>043-046>053-073>077-242300-
SOUTH CENTRAL/SOUTHEAST OKLAHOMA

CITY           SKY/WX    TMP DP  RH WIND       PRES   REMARKS
ARDMORE/DWNTWN CLOUDY    68  64  88 E16G23    29.87F
MCALESTER      LGT RAIN  68  67  96 E7        29.94F
$$




USA.gov is the U.S. government's official web portal to all federal, state and local government web resources and services.